Eldorado — WDE8374 — position and weather

sailwx.info

Track history (hours):
 
Tides and Currents Weather Stations Pressure Air Temp Water Temp Dewpoint Dewpoint Depression Visibility Wind Speed Wind Dir Waves Ship Positions

Eldorado

Owner: FUKUTO / REDLEW CHARTERS, INC., CYPRESS, CA. More information available from US FCC via Universal Licensing System and Coast Guard Vessel Documentation Center.

Last reported at 2018-Apr-20 04:43 UTC. Time now 2018-Apr-20 14:14 UTC.
Position N 33°42' W 118°16'.

Length 28 m; draft 2.5 m.

Type: Passenger vessel. MMSI: 367404740.

Date/timePositionNaut miles runAvg speedWind from/ knotsBaromVisibWave heightAir tempDewpointWater temp
2018-Apr-20 04:43N 33°42' W 118°16'2 9.3
2018-Apr-20 04:30N 33°43' W 118°14'4 7.1
2018-Apr-20 04:00N 33°46' W 118°13'0 0.0
2018-Apr-20 03:30N 33°46' W 118°13'0 0.0
2018-Apr-20 02:59N 33°46' W 118°13'0 0.0
2018-Apr-20 02:30N 33°46' W 118°13'0 0.0
2018-Apr-20 02:00N 33°46' W 118°13'0 0.0
2018-Apr-20 01:30N 33°46' W 118°13'0 0.0
2018-Apr-20 01:00N 33°46' W 118°13'0 0.0
2018-Apr-20 00:30N 33°46' W 118°13'0 0.0
2018-Apr-20 00:00N 33°46' W 118°13'0 0.0
2018-Apr-19 23:29N 33°46' W 118°13'3 6.1
2018-Apr-19 23:00N 33°44' W 118°14'2 4.6
2018-Apr-19 22:30N 33°44' W 118°17'1 1.4
2018-Apr-19 22:00N 33°43' W 118°16'3 6.6
2018-Apr-19 21:30N 33°45' W 118°13'  
2018-Apr-16 01:47N 32°44' W 117°20'2 0.1
2018-Apr-15 12:12N 32°43' W 117°21'210.6
2018-Apr-15 11:59N 32°44' W 117°22'510.5
2018-Apr-15 11:30N 32°49' W 117°26'510.3
2018-Apr-15 11:00N 32°53' W 117°29'510.2
2018-Apr-15 10:30N 32°57' W 117°33'510.1
2018-Apr-15 10:00N 33°01' W 117°36'510.3
2018-Apr-15 09:30N 33°06' W 117°40'510.2
2018-Apr-15 09:00N 33°10' W 117°43'510.2
2018-Apr-15 08:30N 33°14' W 117°46'510.1
2018-Apr-15 08:00N 33°18' W 117°50'5 9.8
2018-Apr-15 07:29N 33°22' W 117°53'5 9.7
2018-Apr-15 07:00N 33°26' W 117°56'510.0
2018-Apr-15 06:30N 33°30' W 117°60'16 9.6
2018-Apr-15 04:52N 33°43' W 118°11'3 8.5
2018-Apr-15 04:30N 33°45' W 118°13'1 0.8
2018-Apr-15 03:18N 33°46' W 118°13'0 0.0
2018-Apr-15 02:56N 33°46' W 118°13'0 0.0
2018-Apr-15 02:30N 33°46' W 118°13'3 6.8
2018-Apr-15 02:00N 33°43' W 118°14'3210.7
2018-Apr-14 22:59N 33°31' W 118°50'711.0
2018-Apr-14 22:21N 33°29' W 118°58'410.5
2018-Apr-14 22:00N 33°27' W 119°02'1610.9
2018-Apr-14 20:31N 33°22' W 119°21'0 9.8
2018-Apr-14 20:30N 33°22' W 119°21'1110.7
2018-Apr-14 19:29N 33°19' W 119°33'1 2.7
2018-Apr-14 18:57N 33°18' W 119°35'1 2.5
2018-Apr-14 18:28N 33°18' W 119°33'3 0.5
2018-Apr-14 12:25N 33°18' W 119°37'2 5.1
2018-Apr-14 12:00N 33°18' W 119°35'5 9.0
2018-Apr-14 11:28N 33°20' W 119°29'4 9.1
2018-Apr-14 11:00N 33°21' W 119°24'5 9.5
2018-Apr-14 10:30N 33°23' W 119°19'5 9.7
2018-Apr-14 10:00N 33°24' W 119°13'5 9.8
2018-Apr-14 09:30N 33°26' W 119°08'5 9.6
2018-Apr-14 09:00N 33°27' W 119°02'5 9.6
2018-Apr-14 08:29N 33°29' W 118°57'5 9.5
2018-Apr-14 07:58N 33°30' W 118°51'5 9.7
2018-Apr-14 07:29N 33°32' W 118°46'5 9.7
2018-Apr-14 06:55N 33°34' W 118°40'4 9.6
2018-Apr-14 06:30N 33°36' W 118°35'17 9.1
2018-Apr-14 04:41N 33°41' W 118°17'210.0
2018-Apr-14 04:30N 33°42' W 118°15'4 7.8
2018-Apr-14 04:00N 33°46' W 118°13'1 0.9
2018-Apr-14 03:22N 33°46' W 118°13'0 0.0
2018-Apr-14 02:31N 33°46' W 118°13'0 0.0
2018-Apr-14 02:30N 33°46' W 118°13'  
Track history (hours):
 
Tides and Currents Weather Stations Pressure Air Temp Water Temp Dewpoint Dewpoint Depression Visibility Wind Speed Wind Dir Waves Ship Positions

Eldorado

Owner: FUKUTO / REDLEW CHARTERS, INC., CYPRESS, CA. More information available from US FCC via Universal Licensing System and Coast Guard Vessel Documentation Center.

Last reported at 2018-Apr-20 04:43 UTC. Time now 2018-Apr-20 14:14 UTC.
Position N 33°42' W 118°16'.

Length 28 m; draft 2.5 m.

Type: Passenger vessel. MMSI: 367404740.

Date/timePositionNaut miles runAvg speedWind from/ knotsBaromVisibWave heightAir tempDewpointWater temp
2018-Apr-20 04:43N 33°42' W 118°16'2 9.3
2018-Apr-20 04:30N 33°43' W 118°14'4 7.1
2018-Apr-20 04:00N 33°46' W 118°13'0 0.0
2018-Apr-20 03:30N 33°46' W 118°13'0 0.0
2018-Apr-20 02:59N 33°46' W 118°13'0 0.0
2018-Apr-20 02:30N 33°46' W 118°13'0 0.0
2018-Apr-20 02:00N 33°46' W 118°13'0 0.0
2018-Apr-20 01:30N 33°46' W 118°13'0 0.0
2018-Apr-20 01:00N 33°46' W 118°13'0 0.0
2018-Apr-20 00:30N 33°46' W 118°13'0 0.0
2018-Apr-20 00:00N 33°46' W 118°13'0 0.0
2018-Apr-19 23:29N 33°46' W 118°13'3 6.1
2018-Apr-19 23:00N 33°44' W 118°14'2 4.6
2018-Apr-19 22:30N 33°44' W 118°17'1 1.4
2018-Apr-19 22:00N 33°43' W 118°16'3 6.6
2018-Apr-19 21:30N 33°45' W 118°13'  
2018-Apr-16 01:47N 32°44' W 117°20'2 0.1
2018-Apr-15 12:12N 32°43' W 117°21'210.6
2018-Apr-15 11:59N 32°44' W 117°22'510.5
2018-Apr-15 11:30N 32°49' W 117°26'510.3
2018-Apr-15 11:00N 32°53' W 117°29'510.2
2018-Apr-15 10:30N 32°57' W 117°33'510.1
2018-Apr-15 10:00N 33°01' W 117°36'510.3
2018-Apr-15 09:30N 33°06' W 117°40'510.2
2018-Apr-15 09:00N 33°10' W 117°43'510.2
2018-Apr-15 08:30N 33°14' W 117°46'510.1
2018-Apr-15 08:00N 33°18' W 117°50'5 9.8
2018-Apr-15 07:29N 33°22' W 117°53'5 9.7
2018-Apr-15 07:00N 33°26' W 117°56'510.0
2018-Apr-15 06:30N 33°30' W 117°60'16 9.6
2018-Apr-15 04:52N 33°43' W 118°11'3 8.5
2018-Apr-15 04:30N 33°45' W 118°13'1 0.8
2018-Apr-15 03:18N 33°46' W 118°13'0 0.0
2018-Apr-15 02:56N 33°46' W 118°13'0 0.0
2018-Apr-15 02:30N 33°46' W 118°13'3 6.8
2018-Apr-15 02:00N 33°43' W 118°14'3210.7
2018-Apr-14 22:59N 33°31' W 118°50'711.0
2018-Apr-14 22:21N 33°29' W 118°58'410.5
2018-Apr-14 22:00N 33°27' W 119°02'1610.9
2018-Apr-14 20:31N 33°22' W 119°21'0 9.8
2018-Apr-14 20:30N 33°22' W 119°21'1110.7
2018-Apr-14 19:29N 33°19' W 119°33'1 2.7
2018-Apr-14 18:57N 33°18' W 119°35'1 2.5
2018-Apr-14 18:28N 33°18' W 119°33'3 0.5
2018-Apr-14 12:25N 33°18' W 119°37'2 5.1
2018-Apr-14 12:00N 33°18' W 119°35'5 9.0
2018-Apr-14 11:28N 33°20' W 119°29'4 9.1
2018-Apr-14 11:00N 33°21' W 119°24'5 9.5
2018-Apr-14 10:30N 33°23' W 119°19'5 9.7
2018-Apr-14 10:00N 33°24' W 119°13'5 9.8
2018-Apr-14 09:30N 33°26' W 119°08'5 9.6
2018-Apr-14 09:00N 33°27' W 119°02'5 9.6
2018-Apr-14 08:29N 33°29' W 118°57'5 9.5
2018-Apr-14 07:58N 33°30' W 118°51'5 9.7
2018-Apr-14 07:29N 33°32' W 118°46'5 9.7
2018-Apr-14 06:55N 33°34' W 118°40'4 9.6
2018-Apr-14 06:30N 33°36' W 118°35'17 9.1
2018-Apr-14 04:41N 33°41' W 118°17'210.0
2018-Apr-14 04:30N 33°42' W 118°15'4 7.8
2018-Apr-14 04:00N 33°46' W 118°13'1 0.9
2018-Apr-14 03:22N 33°46' W 118°13'0 0.0
2018-Apr-14 02:31N 33°46' W 118°13'0 0.0
2018-Apr-14 02:30N 33°46' W 118°13'  

Dump ship's entire track history